Time,TemperatureF,DewpointF,PressureIn,WindDirection,WindDirectionDegrees,WindSpeedMPH,WindSpeedGustMPH,Humidity,HourlyPrecipIn,Conditions,Clouds,dailyrainin,SoftwareType,DateUTC
2013-01-03 00:03:00,47.0,45.0,30.08,ESE,105,0.0,4.0,93,0.00,,,0.10,,2013-01-03 05:03:00,
2013-01-03 00:12:00,47.0,45.0,30.08,ESE,105,0.0,4.0,93,0.00,,,0.10,,2013-01-03 05:12:00,
2013-01-03 00:23:00,47.0,45.0,30.08,ESE,105,0.0,2.0,93,0.00,,,0.10,,2013-01-03 05:23:00,
2013-01-03 00:33:00,47.0,45.0,30.08,ESE,105,0.0,2.0,93,0.00,,,0.10,,2013-01-03 05:33:00,
2013-01-03 00:42:00,47.0,45.0,30.08,ESE,105,0.0,2.0,93,0.00,,,0.10,,2013-01-03 05:42:00,
2013-01-03 00:52:00,46.0,44.0,30.07,ESE,103,0.0,3.0,93,0.00,,,0.05,,2013-01-03 05:52:00,
2013-01-03 01:03:00,46.0,44.0,30.06,ESE,111,1.0,7.0,93,0.00,,,0.05,,2013-01-03 06:03:00,
2013-01-03 01:12:00,46.0,44.0,30.06,ESE,111,1.0,7.0,93,0.00,,,0.05,,2013-01-03 06:12:00,
2013-01-03 01:22:00,46.0,44.0,30.06,SE,128,0.0,4.0,93,0.00,,,0.05,,2013-01-03 06:22:00,
2013-01-03 01:33:00,46.0,44.0,30.06,ESE,123,0.0,5.0,93,0.00,,,0.02,,2013-01-03 06:33:00,
2013-01-03 01:42:00,46.0,44.0,30.06,ESE,123,0.0,5.0,93,0.00,,,0.02,,2013-01-03 06:42:00,
2013-01-03 01:52:00,46.0,44.0,30.06,SE,140,0.0,2.0,93,0.00,,,0.02,,2013-01-03 06:52:00,
2013-01-03 02:02:00,46.0,44.0,30.05,ESE,115,0.0,3.0,92,0.00,,,0.02,,2013-01-03 07:02:00,
2013-01-03 02:12:00,46.0,44.0,30.05,ESE,115,0.0,3.0,92,0.00,,,0.02,,2013-01-03 07:12:00,
2013-01-03 02:22:00,46.0,44.0,30.06,ESE,115,0.0,2.0,92,0.00,,,0.02,,2013-01-03 07:22:00,
2013-01-03 02:33:00,46.0,44.0,30.08,ESE,115,0.0,1.0,93,0.00,,,0.01,,2013-01-03 07:33:00,
2013-01-03 02:42:00,46.0,44.0,30.08,ESE,115,0.0,1.0,93,0.00,,,0.01,,2013-01-03 07:42:00,
2013-01-03 02:52:00,46.0,44.0,30.09,ESE,115,0.0,1.0,93,0.00,,,0.01,,2013-01-03 07:52:00,
2013-01-03 03:02:00,46.0,44.0,30.10,ESE,112,0.0,1.0,93,0.00,,,0.01,,2013-01-03 08:02:00,
2013-01-03 03:12:00,46.0,44.0,30.10,ESE,112,0.0,1.0,93,0.00,,,0.01,,2013-01-03 08:12:00,
2013-01-03 03:22:00,46.0,44.0,30.11,ESE,112,0.0,2.0,93,0.00,,,0.01,,2013-01-03 08:22:00,
2013-01-03 03:33:00,46.0,44.0,30.10,ESE,112,0.0,1.0,94,0.00,,,0.00,,2013-01-03 08:33:00,
2013-01-03 03:43:00,46.0,44.0,30.10,ESE,112,0.0,1.0,94,0.00,,,0.00,,2013-01-03 08:43:00,
2013-01-03 03:53:00,45.0,43.0,30.09,ESE,112,1.0,2.0,94,0.00,,,0.00,,2013-01-03 08:53:00,
2013-01-03 04:03:00,45.0,44.0,30.07,ESE,115,2.0,4.0,95,0.00,,,0.00,,2013-01-03 09:03:00,
2013-01-03 04:12:00,45.0,44.0,30.07,ESE,115,2.0,4.0,95,0.00,,,0.00,,2013-01-03 09:12:00,
2013-01-03 04:22:00,45.0,44.0,30.08,ESE,115,0.0,2.0,95,0.00,,,0.00,,2013-01-03 09:22:00,
2013-01-03 04:34:00,45.0,44.0,30.09,ESE,111,0.0,2.0,95,0.00,,,0.00,,2013-01-03 09:34:00,
2013-01-03 04:43:00,45.0,44.0,30.09,ESE,111,0.0,2.0,95,0.00,,,0.00,,2013-01-03 09:43:00,
2013-01-03 04:52:00,45.0,44.0,30.09,ESE,111,0.0,2.0,95,0.00,,,0.00,,2013-01-03 09:52:00,
2013-01-03 05:02:00,44.0,43.0,30.07,East,90,0.0,3.0,96,0.00,,,0.00,,2013-01-03 10:02:00,
2013-01-03 05:12:00,44.0,43.0,30.07,East,90,0.0,3.0,96,0.00,,,0.00,,2013-01-03 10:12:00,
2013-01-03 05:23:00,44.0,43.0,30.07,SE,128,1.0,7.0,96,0.00,,,0.00,,2013-01-03 10:23:00,
2013-01-03 05:33:00,44.0,43.0,30.07,ESE,116,0.0,3.0,95,0.00,,,0.00,,2013-01-03 10:33:00,
2013-01-03 05:43:00,44.0,43.0,30.07,ESE,116,0.0,3.0,95,0.00,,,0.00,,2013-01-03 10:43:00,
2013-01-03 05:52:00,44.0,43.0,30.08,ESE,116,0.0,3.0,95,0.00,,,0.00,,2013-01-03 10:52:00,
2013-01-03 06:03:00,44.0,43.0,30.10,East,86,0.0,2.0,96,0.00,,,0.00,,2013-01-03 11:03:00,
2013-01-03 06:12:00,44.0,43.0,30.10,East,86,0.0,2.0,96,0.00,,,0.00,,2013-01-03 11:12:00,
2013-01-03 06:23:00,44.0,43.0,30.09,East,86,0.0,2.0,95,0.00,,,0.00,,2013-01-03 11:23:00,
2013-01-03 06:33:00,44.0,43.0,30.09,East,86,0.0,1.0,95,0.00,,,0.00,,2013-01-03 11:33:00,
2013-01-03 06:43:00,44.0,43.0,30.09,East,86,0.0,1.0,95,0.00,,,0.00,,2013-01-03 11:43:00,
2013-01-03 06:53:00,44.0,43.0,30.09,East,86,0.0,0.0,95,0.00,,,0.00,,2013-01-03 11:53:00,
2013-01-03 07:03:00,44.0,43.0,30.09,East,86,0.0,1.0,95,0.00,,,0.00,,2013-01-03 12:03:00,
2013-01-03 07:12:00,44.0,43.0,30.09,East,86,0.0,1.0,95,0.00,,,0.00,,2013-01-03 12:12:00,
2013-01-03 09:33:00,45.0,44.0,30.13,East,92,0.0,3.0,95,0.00,,,0.00,,2013-01-03 14:33:00,
2013-01-03 09:43:00,45.0,44.0,30.13,East,92,0.0,3.0,95,0.00,,,0.00,,2013-01-03 14:43:00,
2013-01-03 09:53:00,45.0,44.0,30.12,East,89,0.0,3.0,95,0.00,,,0.00,,2013-01-03 14:53:00,
2013-01-03 10:03:00,45.0,44.0,30.12,ESE,110,4.0,6.0,95,0.00,,,0.00,,2013-01-03 15:03:00,
2013-01-03 10:12:00,45.0,44.0,30.12,ESE,110,4.0,6.0,95,0.00,,,0.00,,2013-01-03 15:12:00,
2013-01-03 10:23:00,45.0,44.0,30.14,ENE,76,2.0,4.0,95,0.00,,,0.00,,2013-01-03 15:23:00,
2013-01-03 10:34:00,45.0,44.0,30.13,ENE,76,1.0,3.0,95,0.00,,,0.00,,2013-01-03 15:34:00,
2013-01-03 10:43:00,45.0,44.0,30.13,ENE,76,1.0,3.0,95,0.00,,,0.00,,2013-01-03 15:43:00,
2013-01-03 10:53:00,45.0,44.0,30.14,NE,51,1.0,4.0,95,0.00,,,0.00,,2013-01-03 15:53:00,
2013-01-03 11:03:00,45.0,44.0,30.15,ENE,70,1.0,3.0,95,0.00,,,0.00,,2013-01-03 16:03:00,
2013-01-03 11:12:00,45.0,44.0,30.15,ENE,70,1.0,3.0,95,0.00,,,0.00,,2013-01-03 16:12:00,
2013-01-03 11:23:00,45.0,44.0,30.15,ENE,62,1.0,4.0,95,0.00,,,0.00,,2013-01-03 16:23:00,
2013-01-03 11:33:00,44.0,43.0,30.15,ENE,61,0.0,4.0,95,0.00,,,0.00,,2013-01-03 16:33:00,
2013-01-03 11:43:00,44.0,43.0,30.15,ENE,61,0.0,4.0,95,0.00,,,0.00,,2013-01-03 16:43:00,
2013-01-03 11:53:00,44.0,43.0,30.15,ENE,61,1.0,3.0,95,0.00,,,0.00,,2013-01-03 16:53:00,
2013-01-03 12:03:00,44.0,43.0,30.14,ENE,61,0.0,4.0,95,0.00,,,0.00,,2013-01-03 17:03:00,
2013-01-03 12:13:00,44.0,43.0,30.14,ENE,61,0.0,4.0,95,0.00,,,0.00,,2013-01-03 17:13:00,
2013-01-03 12:23:00,44.0,43.0,30.14,ENE,61,0.0,4.0,95,0.00,,,0.00,,2013-01-03 17:23:00,
2013-01-03 12:33:00,44.0,43.0,30.14,ENE,61,0.0,2.0,95,0.00,,,0.00,,2013-01-03 17:33:00,
2013-01-03 12:43:00,44.0,43.0,30.14,ENE,61,0.0,2.0,95,0.00,,,0.00,,2013-01-03 17:43:00,
2013-01-03 12:53:00,44.0,43.0,30.13,ENE,61,0.0,3.0,95,0.00,,,0.00,,2013-01-03 17:53:00,
2013-01-03 13:03:00,44.0,43.0,30.13,ENE,61,0.0,2.0,95,0.00,,,0.00,,2013-01-03 18:03:00,
2013-01-03 13:13:00,44.0,43.0,30.13,ENE,61,0.0,2.0,95,0.00,,,0.00,,2013-01-03 18:13:00,
2013-01-03 13:22:00,44.0,43.0,30.13,ENE,61,0.0,3.0,95,0.01,,,0.01,,2013-01-03 18:22:00,
2013-01-03 13:33:00,44.0,43.0,30.12,ENE,61,0.0,2.0,95,0.01,,,0.01,,2013-01-03 18:33:00,
2013-01-03 13:43:00,44.0,43.0,30.12,ENE,61,0.0,2.0,95,0.01,,,0.01,,2013-01-03 18:43:00,
2013-01-03 13:53:00,44.0,43.0,30.12,ENE,61,1.0,3.0,95,0.01,,,0.01,,2013-01-03 18:53:00,
2013-01-03 14:03:00,44.0,43.0,30.12,ENE,61,0.0,2.0,95,0.01,,,0.01,,2013-01-03 19:03:00,
2013-01-03 14:13:00,44.0,43.0,30.12,ENE,61,0.0,2.0,95,0.01,,,0.01,,2013-01-03 19:13:00,
2013-01-03 14:56:00,44.0,42.0,30.12,ENE,61,0.0,3.0,93,0.00,,,0.01,,2013-01-03 19:56:00,
2013-01-03 15:03:00,44.0,42.0,30.12,ENE,61,0.0,2.0,93,0.00,,,0.01,,2013-01-03 20:03:00,
2013-01-03 15:13:00,44.0,42.0,30.12,ENE,61,0.0,2.0,93,0.00,,,0.01,,2013-01-03 20:13:00,
2013-01-03 15:23:00,45.0,43.0,30.12,ENE,61,1.0,3.0,93,0.00,,,0.01,,2013-01-03 20:23:00,
2013-01-03 15:33:00,45.0,43.0,30.12,ENE,61,1.0,3.0,93,0.00,,,0.01,,2013-01-03 20:33:00,
2013-01-03 15:43:00,45.0,43.0,30.12,ENE,61,1.0,3.0,93,0.00,,,0.01,,2013-01-03 20:43:00,
2013-01-03 15:53:00,45.0,43.0,30.13,ENE,61,0.0,2.0,92,0.00,,,0.01,,2013-01-03 20:53:00,
2013-01-03 16:03:00,45.0,43.0,30.14,ENE,61,0.0,2.0,91,0.00,,,0.01,,2013-01-03 21:03:00,
2013-01-03 16:13:00,45.0,43.0,30.14,ENE,61,0.0,2.0,91,0.00,,,0.01,,2013-01-03 21:13:00,
2013-01-03 16:23:00,45.0,42.0,30.14,ENE,61,0.0,3.0,90,0.00,,,0.01,,2013-01-03 21:23:00,
2013-01-03 16:37:00,45.0,42.0,30.15,ENE,71,0.0,3.0,89,0.00,,,0.01,,2013-01-03 21:37:00,
2013-01-03 16:50:00,45.0,42.0,30.15,ENE,71,0.0,3.0,89,0.00,,,0.01,,2013-01-03 21:50:00,
2013-01-03 17:03:00,45.0,42.0,30.15,ESE,109,0.0,3.0,90,0.00,,,0.01,,2013-01-03 22:03:00,
2013-01-03 17:12:00,45.0,42.0,30.15,ESE,109,0.0,3.0,90,0.00,,,0.01,,2013-01-03 22:12:00,
2013-01-03 17:22:00,45.0,42.0,30.16,ESE,109,0.0,2.0,89,0.00,,,0.01,,2013-01-03 22:22:00,
2013-01-03 17:33:00,45.0,42.0,30.17,East,96,0.0,3.0,89,0.00,,,0.01,,2013-01-03 22:33:00,
2013-01-03 17:43:00,45.0,42.0,30.17,East,96,0.0,3.0,89,0.00,,,0.01,,2013-01-03 22:43:00,
2013-01-03 17:52:00,45.0,42.0,30.17,East,96,0.0,0.0,89,0.00,,,0.01,,2013-01-03 22:52:00,
2013-01-03 18:03:00,45.0,42.0,30.17,East,96,0.0,2.0,89,0.00,,,0.01,,2013-01-03 23:03:00,
2013-01-03 18:12:00,45.0,42.0,30.17,East,96,0.0,2.0,89,0.00,,,0.01,,2013-01-03 23:12:00,
2013-01-03 18:23:00,44.0,41.0,30.17,East,96,0.0,1.0,89,0.00,,,0.01,,2013-01-03 23:23:00,
2013-01-03 18:33:00,44.0,41.0,30.18,East,96,0.0,0.0,89,0.00,,,0.01,,2013-01-03 23:33:00,
2013-01-03 18:43:00,44.0,41.0,30.18,East,96,0.0,0.0,89,0.00,,,0.01,,2013-01-03 23:43:00,
2013-01-03 18:53:00,43.0,40.0,30.19,East,96,0.0,0.0,89,0.00,,,0.01,,2013-01-03 23:53:00,
2013-01-03 19:03:00,43.0,40.0,30.20,East,96,0.0,0.0,89,0.00,,,0.01,,2013-01-04 00:03:00,
2013-01-03 19:13:00,43.0,40.0,30.20,East,96,0.0,0.0,89,0.00,,,0.01,,2013-01-04 00:13:00,
2013-01-03 19:23:00,42.0,39.0,30.21,East,96,0.0,0.0,90,0.00,,,0.01,,2013-01-04 00:23:00,
2013-01-03 19:33:00,41.0,39.0,30.21,East,96,0.0,0.0,91,0.00,,,0.01,,2013-01-04 00:33:00,
2013-01-03 19:42:00,41.0,39.0,30.21,East,96,0.0,0.0,91,0.00,,,0.01,,2013-01-04 00:42:00,
2013-01-03 19:52:00,40.0,38.0,30.21,East,96,0.0,0.0,91,0.00,,,0.01,,2013-01-04 00:52:00,
2013-01-03 20:02:00,39.0,37.0,30.22,East,96,0.0,0.0,91,0.00,,,0.01,,2013-01-04 01:02:00,
2013-01-03 20:13:00,39.0,37.0,30.22,East,96,0.0,0.0,91,0.00,,,0.01,,2013-01-04 01:13:00,
2013-01-03 20:22:00,39.0,37.0,30.23,East,96,0.0,0.0,91,0.00,,,0.01,,2013-01-04 01:22:00,
2013-01-03 20:33:00,38.0,36.0,30.23,East,96,0.0,0.0,92,0.00,,,0.01,,2013-01-04 01:33:00,
2013-01-03 20:42:00,38.0,36.0,30.23,East,96,0.0,0.0,92,0.00,,,0.01,,2013-01-04 01:42:00,
2013-01-03 20:52:00,37.0,35.0,30.23,East,96,0.0,0.0,92,0.00,,,0.01,,2013-01-04 01:52:00,
2013-01-03 21:02:00,36.0,34.0,30.24,East,96,0.0,0.0,93,0.00,,,0.01,,2013-01-04 02:02:00,
2013-01-03 21:12:00,36.0,34.0,30.24,East,96,0.0,0.0,93,0.00,,,0.01,,2013-01-04 02:12:00,
2013-01-03 21:22:00,36.0,34.0,30.24,East,96,0.0,0.0,93,0.00,,,0.01,,2013-01-04 02:22:00,
2013-01-03 21:33:00,35.0,33.0,30.24,East,96,0.0,0.0,92,0.00,,,0.01,,2013-01-04 02:33:00,
2013-01-03 21:42:00,35.0,33.0,30.24,East,96,0.0,0.0,92,0.00,,,0.01,,2013-01-04 02:42:00,
2013-01-03 21:52:00,35.0,33.0,30.24,East,96,0.0,0.0,93,0.00,,,0.01,,2013-01-04 02:52:00,
2013-01-03 22:03:00,34.0,32.0,30.24,East,96,0.0,0.0,93,0.00,,,0.01,,2013-01-04 03:03:00,
2013-01-03 22:12:00,34.0,32.0,30.24,East,96,0.0,0.0,93,0.00,,,0.01,,2013-01-04 03:12:00,
2013-01-03 22:22:00,34.0,32.0,30.25,East,96,0.0,0.0,93,0.00,,,0.01,,2013-01-04 03:22:00,
2013-01-03 22:33:00,34.0,32.0,30.25,East,96,0.0,0.0,93,0.00,,,0.01,,2013-01-04 03:33:00,
2013-01-03 22:43:00,34.0,32.0,30.25,East,96,0.0,0.0,93,0.00,,,0.01,,2013-01-04 03:43:00,
2013-01-03 22:52:00,33.0,31.0,30.25,East,96,0.0,2.0,93,0.00,,,0.01,,2013-01-04 03:52:00,
2013-01-03 23:02:00,33.0,31.0,30.24,East,96,0.0,0.0,93,0.00,,,0.01,,2013-01-04 04:02:00,
2013-01-03 23:12:00,33.0,31.0,30.24,East,96,0.0,0.0,93,0.00,,,0.01,,2013-01-04 04:12:00,
2013-01-03 23:22:00,32.0,30.0,30.25,East,96,0.0,0.0,93,0.00,,,0.01,,2013-01-04 04:22:00,
2013-01-03 23:32:00,32.0,30.0,30.25,East,96,0.0,0.0,94,0.00,,,0.01,,2013-01-04 04:32:00,
2013-01-03 23:42:00,32.0,30.0,30.25,East,96,0.0,0.0,94,0.00,,,0.01,,2013-01-04 04:42:00,
2013-01-03 23:52:00,32.0,30.0,30.25,East,96,0.0,0.0,94,0.00,,,0.01,,2013-01-04 04:52:00,